Location: �perlecques
(50.8057°N, 2.1521°E)
Time: 21:04:41
(UTC+00:00)

Tiros 1 - Pass Details

Date: 07 August 2021
Orbit: 630 x 663 km, 48.4° (Epoch: 28 September)

Event Time Altitude Azimuth Distance (km) Brightness Sun altitude
Rises 18:55:18 0° 271° (W) 2,988 12.2 3.7°
Reaches altitude 10° 18:57:41 10° 268° (W) 2,072 11.2 3.3°
Maximum altitude 19:02:24 63° 188° (S) 732 7.5 2.6°
Drops below altitude 10° 19:07:05 10° 108° (ESE) 2,050 9.1 1.9°
Sets 19:09:25 0° 105° (ESE) 2,954 9.9 1.6°
